Wind_Speed
21 21 21 21 19 17 17 17 16 16 16 15 15 14 14 15 15 14 14 13 13 13 12 12 12 11 11 11 11 11 12 9 6 5 4 6 4 4 3 7 6 7 9
25 22 21 20 19 18 17 17 17 16 15 14 13 13 13 12 13 12 12 12 11 11 11 11 12 12 12 12 11 12 11 10 8 8 8 6 3 1 3 2 3 5 7
25 23 22 20 19 18 17 17 16 15 14 13 13 13 12 12 12 12 11 11 11 10 10 11 11 11 12 13 13 12 12 11 9 8 8 9 7 3 3 4 3 3 6
23 24 22 20 19 18 17 15 15 15 14 13 12 12 12 12 12 12 12 11 11 11 12 12 12 12 13 14 14 13 13 12 12 9 8 7 3 4 8 5 2 3 4
26 23 21 20 19 17 16 16 15 14 13 12 11 10 11 11 10 11 10 10 10 12 12 12 13 13 14 14 14 14 13 12 9 10 8 3 2 4 4 4 1 1 4
26 23 21 20 18 17 15 13 13 12 11 11 11 10 10 10 11 11 10 10 10 10 11 11 12 13 13 14 14 14 14 13 10 7 7 5 5 5 3 12 12 7 8
25 23 21 19 17 16 15 14 13 12 13 12 11 11 11 10 10 9 9 9 9 10 11 12 13 13 13 14 14 14 13 12 11 8 7 6 5 11 2 7 2 4 10
25 22 20 18 17 15 14 13 13 12 12 12 13 12 11 11 10 8 10 11 11 11 12 13 14 14 14 13 13 15 15 12 8 10 5 0 6 2 1 2 4 8 11
22 21 20 18 17 15 14 13 14 13 14 14 12 11 12 11 10 11 11 12 11 12 13 12 16 17 13 12 13 14 15 11 11 12 6 4 5 3 3 5 10 11 13
19 18 18 14 15 16 15 15 16 15 16 16 13 10 9 7 7 7 9 9 11 14 12 13 15 16 14 14 17 17 15 15 14 8 1 3 4 3 4 6 9 10 10
21 16 17 15 13 15 14 13 14 14 13 12 9 5 7 5 4 7 7 7 10 14 10 13 14 14 12 12 18 16 13 16 14 8 6 4 3 3 6 9 10 11 11
20 23 19 15 11 10 9 8 10 11 11 11 10 10 8 4 3 3 5 6 12 11 8 14 12 14 10 15 16 17 14 15 14 13 10 11 8 7 9 10 11 12 13
24 24 21 17 11 8 6 6 7 10 10 10 9 9 5 5 8 5 6 9 9 11 12 13 11 13 16 15 17 18 14 13 13 13 10 8 10 10 12 13 12 12 14
26 27 22 17 17 10 9 13 18 13 12 8 10 6 5 4 1 3 3 4 5 9 10 7 10 16 16 15 16 18 15 12 15 14 17 16 13 14 16 16 15 14 14
27 29 23 19 17 13 9 9 11 10 6 8 5 3 5 4 2 2 0 3 6 9 12 13 16 18 19 19 17 17 16 19 18 16 16 18 19 17 17 18 18 16 15
30 33 25 18 13 14 11 8 9 8 8 8 5 1 3 2 1 3 5 8 10 12 14 17 20 20 21 21 23 22 22 20 21 21 19 21 20 20 17 18 19 20 18
26 30 28 19 8 5 13 11 9 6 7 6 4 3 2 1 4 6 10 12 14 16 19 21 21 21 23 22 23 24 24 24 25 26 25 23 25 25 24 21 21 21 22
23 30 30 27 23 12 8 10 13 9 4 3 4 5 7 5 3 5 11 15 17 19 21 21 22 22 20 20 24 26 26 27 29 28 30 30 29 29 28 26 24 24 22
18 28 25 17 20 15 19 12 9 4 1 1 7 9 7 4 4 8 16 20 19 19 19 19 21 24 27 28 28 25 25 26 27 30 31 29 30 33 32 29 27 27 26
24 24 27 22 15 20 16 9 6 7 9 11 9 10 7 6 8 12 19 20 17 20 21 23 25 27 26 25 25 27 26 25 24 25 27 28 31 33 35 36 33 31 31
32 31 24 20 18 14 10 9 11 10 9 13 12 10 9 10 12 16 21 13 13 14 19 22 22 25 28 27 27 24 24 25 22 22 25 28 24 26 33 39 40 37 36
28 23 21 20 19 17 16 16 12 10 8 6 9 10 13 14 17 13 14 16 17 17 18 21 24 26 19 16 17 18 5 17 17 21 22 27 23 19 20 21 24 35 34
26 22 19 17 13 16 12 7 6 8 9 13 16 17 17 13 12 13 15 16 18 18 20 23 23 18 21 18 10 5 4 3 14 12 28 16 23 22 22 24 18 15 23
19 16 15 11 9 6 5 9 8 8 10 13 12 10 9 10 14 17 19 22 24 25 24 19 15 12 13 10 9 7 9 4 2 6 11 25 19 31 31 27 25 21 16
11 9 7 5 4 6 3 3 1 3 4 6 8 7 11 16 20 20 23 22 21 18 16 17 16 14 11 10 10 10 9 14 11 2 10 9 20 23 23 23 24 22 18
8 5 3 3 11 7 3 1 2 4 7 7 7 10 15 18 17 20 18 18 18 15 15 13 10 10 10 11 12 14 12 6 8 7 3 13 15 17 25 23 20 16 16
Wind_Direction
122 124 119 112 110 105 101 97 95 92 90 87 81 76 69 64 61 56 52 45 37 29 20 15 9 7 2 356 354 348 339 336 327 349 356 354 22 78 100 117 118 124 121
133 129 121 114 111 106 99 94 95 96 92 88 85 77 70 63 57 49 41 35 30 25 12 8 7 5 0 355 358 356 349 343 342 337 340 355 342 30 82 355 177 122 122
125 125 119 118 113 107 103 102 99 95 92 87 78 71 65 59 52 48 45 41 38 33 25 22 15 11 7 2 1 353 347 348 349 350 339 5 342 222 96 108 104 77 138
121 123 122 120 116 112 107 105 100 94 90 84 79 70 64 57 52 51 50 47 47 40 35 27 20 14 10 7 3 2 357 348 346 347 359 16 62 144 0 24 119 155 165
118 122 124 122 118 115 111 104 99 97 93 88 83 79 70 63 60 58 59 57 48 42 37 27 21 16 10 8 8 10 9 5 351 359 13 322 159 131 128 171 293 78 192
117 120 123 122 120 116 114 111 106 103 97 94 90 76 74 72 68 66 64 56 48 43 35 25 16 11 4 2 6 9 10 12 16 34 11 351 354 8 351 195 171 134 250
120 121 121 122 117 113 112 109 105 102 100 94 82 77 75 69 67 70 61 54 43 34 26 20 13 6 359 359 0 7 11 12 17 33 14 317 356 311 269 138 127 202 225
127 125 120 116 111 106 105 106 106 104 96 88 81 79 77 69 71 63 64 42 29 26 17 12 11 5 357 356 10 16 13 6 37 23 31 162 51 14 66 208 240 232 239
122 120 115 106 101 98 101 101 99 95 89 83 80 84 94 86 77 61 29 29 24 23 12 18 18 9 2 4 5 8 11 9 6 358 310 160 108 123 169 205 223 225 229
126 121 116 114 117 105 96 96 98 96 94 93 88 92 109 93 83 31 22 28 31 18 22 19 11 8 359 5 356 349 348 1 2 11 153 144 120 134 209 226 235 241 247
138 135 130 130 134 118 91 105 112 110 108 106 93 90 108 81 56 21 0 6 18 6 8 8 3 356 350 352 344 335 341 345 356 352 318 274 226 248 291 289 266 253 249
143 143 135 125 132 139 117 122 124 140 128 122 107 94 95 63 353 10 4 11 11 359 3 355 353 348 342 336 339 343 319 317 320 346 320 274 271 291 297 284 259 255 257
160 149 149 135 137 145 157 153 161 168 144 133 116 116 84 79 105 57 33 5 1 354 344 344 345 348 337 328 328 331 330 334 319 320 339 295 284 293 299 294 278 266 261
168 158 154 150 151 147 136 121 127 136 127 128 128 124 126 98 77 92 12 31 348 341 340 338 331 324 313 314 315 318 307 309 315 309 308 304 297 293 297 294 280 268 264
169 163 165 159 148 158 133 142 130 128 122 133 149 138 132 122 96 145 270 333 334 338 330 320 320 321 309 307 296 301 294 293 293 296 283 286 289 283 286 291 288 277 268
174 166 162 146 146 149 160 145 140 126 126 160 167 331 93 143 270 308 341 344 341 333 325 320 320 316 314 314 309 300 294 287 282 279 281 269 268 272 275 272 277 277 268
181 152 133 104 167 179 172 158 162 152 145 184 221 271 284 24 342 357 355 348 342 328 317 316 316 315 311 311 306 306 304 300 292 286 278 265 259 260 266 265 265 269 268
156 160 154 160 168 184 206 157 154 141 134 345 162 167 123 92 52 8 352 345 338 331 327 325 325 325 327 328 322 314 311 306 306 308 293 274 257 253 254 260 258 256 259
169 162 157 177 162 173 195 179 142 161 159 207 123 124 83 56 12 358 353 342 327 323 330 336 333 333 331 324 319 314 307 305 302 300 299 295 287 261 250 252 256 248 245
104 131 122 134 166 196 172 136 111 108 77 79 81 67 60 48 14 347 334 334 329 328 320 321 327 326 326 323 317 311 303 302 302 302 301 301 290 283 267 253 247 247 242
91 111 113 115 88 133 125 110 72 76 76 93 85 56 28 351 334 328 339 341 342 334 327 323 323 324 318 319 318 318 308 296 295 301 302 306 313 310 293 269 256 241 243
84 87 88 78 76 74 84 77 67 56 50 33 12 46 30 13 2 13 7 0 354 350 335 332 331 320 318 329 323 317 313 310 311 319 313 319 333 333 330 323 284 258 242
79 76 68 67 72 70 69 72 44 13 0 1 355 350 10 21 23 10 355 348 344 341 334 328 325 317 322 330 344 9 339 333 335 319 321 326 331 342 343 344 354 282 258
68 72 76 74 61 43 15 0 20 19 8 345 5 23 15 9 1 355 348 343 337 333 332 331 331 330 326 355 348 324 329 335 324 321 327 311 313 325 330 332 330 333 306
95 85 65 48 12 318 307 355 68 348 30 34 42 14 355 350 349 347 349 339 339 336 337 340 341 339 340 346 4 355 346 334 328 293 313 304 321 320 322 319 327 326 324
139 131 114 57 47 21 272 304 38 94 83 48 23 5 357 354 351 349 350 351 345 340 335 340 351 354 0 353 344 336 329 306 309 284 292 304 304 310 318 330 323 329 325
Height
827 829 829 831 834 836 837 838 839 840 842 844 844 845 846 847 846 847 846 846 845 845 845 845 846 847 846 845 844 843 844 844 846 847 849 848 851 849 848 847 844 842 839
826 830 830 832 834 837 838 839 841 842 842 845 846 846 846 847 847 848 848 847 847 845 846 846 845 846 846 844 843 843 844 845 844 844 846 849 851 851 849 847 846 846 843
827 830 830 834 835 838 839 841 842 844 845 846 847 848 848 847 848 848 848 849 847 846 846 845 846 847 846 844 843 843 844 843 844 844 845 847 848 850 853 850 845 846 847
828 829 832 835 836 839 840 842 843 844 846 847 848 849 849 850 850 850 850 852 850 848 845 847 847 846 844 843 843 843 843 842 842 843 844 844 844 847 849 852 852 849 849
828 831 834 836 838 840 842 843 844 847 847 848 849 849 849 851 851 851 851 851 851 849 846 847 846 844 844 844 844 843 842 841 841 841 840 839 840 844 847 844 848 847 850
830 833 835 837 839 841 842 843 845 846 848 849 849 850 850 852 852 852 854 852 852 850 848 847 846 845 845 844 844 843 842 841 840 840 840 838 838 839 841 841 839 836 844
832 834 836 839 839 841 842 844 845 848 849 850 850 852 852 854 853 853 855 853 854 851 850 848 846 845 844 844 843 843 842 840 839 839 838 837 836 833 833 834 835 839 843
832 835 837 839 840 841 843 844 846 847 848 850 850 851 854 855 856 855 855 854 854 851 851 848 846 844 843 843 842 842 841 840 838 839 838 837 837 834 833 835 837 839 842
834 836 837 839 841 843 845 846 846 848 849 850 852 853 856 855 854 857 856 854 853 851 850 848 846 845 843 842 842 842 840 840 839 839 837 836 835 835 836 836 838 839 841
834 835 837 839 843 843 844 845 844 846 849 852 853 855 855 855 853 856 856 854 853 851 849 848 846 846 844 843 842 841 840 840 839 838 838 836 834 833 834 835 835 836 837
834 835 838 840 842 844 843 844 844 846 846 848 852 853 853 854 852 855 855 854 852 851 849 847 846 845 844 842 842 840 839 838 840 840 839 837 836 835 834 833 832 833 832
833 836 838 841 842 844 845 845 846 850 848 849 851 852 852 854 853 854 854 854 852 851 849 847 846 844 843 841 841 840 837 837 837 839 839 838 836 834 834 832 832 831 831
830 834 836 838 842 842 843 844 846 850 849 848 851 853 852 854 855 855 854 853 852 851 849 847 845 843 842 840 839 839 838 836 835 835 836 837 836 834 832 830 829 830 830
828 832 834 836 839 841 842 844 845 848 850 851 851 851 851 853 853 853 853 853 851 850 848 847 845 843 842 840 838 837 836 835 834 834 833 833 833 831 830 828 828 827 827
827 830 833 834 838 844 846 847 845 845 847 849 850 850 850 851 852 852 851 851 850 849 848 846 844 842 840 838 836 835 833 832 832 831 831 831 830 830 828 827 825 824 823
823 826 835 839 843 843 846 846 846 846 846 848 849 849 850 850 851 852 851 850 849 848 847 845 843 841 838 836 834 832 830 828 827 827 826 826 826 825 825 825 825 824 822
821 824 830 839 850 851 846 844 845 846 846 848 848 848 848 849 851 850 851 850 849 848 845 843 840 838 836 834 831 829 827 825 823 822 821 820 819 819 819 820 820 819 819
817 823 824 831 834 848 853 846 843 845 845 847 847 848 848 848 849 848 849 850 848 846 844 842 839 836 833 831 828 826 824 822 820 818 816 815 814 814 813 813 814 814 814
814 818 826 832 836 844 847 848 843 843 845 846 846 847 847 847 847 847 848 848 846 843 841 838 836 834 831 828 825 822 819 817 816 814 813 811 810 808 807 806 806 807 808
817 820 827 833 839 843 845 844 842 843 844 846 846 845 844 844 844 844 845 844 842 840 838 836 834 832 829 827 823 819 816 813 811 810 808 807 805 804 801 799 799 799 800
829 831 833 837 840 841 841 840 841 842 844 844 846 845 844 844 842 841 843 841 839 836 836 835 832 830 827 824 819 814 811 810 807 806 805 804 802 800 797 793 790 790 792
832 834 836 836 839 841 841 842 842 844 844 844 844 844 844 844 841 840 841 840 838 835 834 832 831 827 825 824 820 814 807 804 802 803 801 800 798 796 794 792 790 790 790
835 837 838 840 842 843 843 843 843 843 844 844 844 843 844 842 840 840 839 837 835 833 832 830 828 826 822 821 820 818 813 810 807 800 799 799 796 794 792 791 789 789 786
841 842 843 843 844 845 845 845 845 846 847 847 846 845 843 841 840 839 837 835 833 831 829 827 825 823 821 819 818 817 816 813 811 804 802 801 797 794 792 790 788 786 785
844 845 845 846 845 844 844 844 845 845 845 845 845 844 844 843 841 839 836 835 833 830 828 825 823 821 819 818 817 817 814 812 811 809 800 799 797 795 792 788 787 785 782
843 844 844 845 846 846 845 845 844 844 844 844 843 842 841 841 840 839 837 834 832 829 826 824 822 820 818 818 817 815 814 813 810 809 804 798 797 792 790 786 784 782 780